Location: Litvinovka
(48.6667°N, 34.3500°E)
Time: 09:49:27
(UTC+00:00)

Cosmos 2150 Rocket - Pass Details

Date: 18 September 2020
Orbit: 749 x 808 km, 74.0° (Epoch: 25 October)

Event Time Altitude Azimuth Distance (km) Brightness Sun altitude
Rises 17:05:38 0° 177° (S) 3,259 7.0 -13.3°
Reaches altitude 10° 17:08:08 10° 170° (S) 2,344 6.2 -13.7°
Maximum altitude 17:13:03 39° 103° (ESE) 1,181 4.5 -14.5°
Drops below altitude 10° 17:18:04 10° 36° (NE) 2,391 6.4 -15.3°
Sets 17:20:37 0° 29° (NNE) 3,331 7.2 -15.7°
